#timestamp,LO_Frequency,Hit 
1500807615.2,286047003.0,N
1500807635.1,286047005.2,N
1500807636.0,286047005.2,N
1500807655.8,286047003.3,N
1500807675.7,286047006.0,N
1500807695.5,286047003.5,N
1500807715.3,286047003.2,N
1500807735.2,286047003.1,N
1500807755.0,286047003.8,N
1500807755.9,286047003.8,N
1500807775.8,286047003.9,N
1500807795.6,286047006.0,N
1500807815.4,286047005.8,N
1500807835.3,286047005.8,N
1500807855.1,286047002.9,N
1500807875.8,286047004.7,N
1500807895.7,286047006.3,N
1500807915.5,286047009.1,N
1500807935.4,286047008.0,N
1500807955.2,286047008.3,N
1500807975.0,286047008.5,N
1500807975.9,286047008.5,N
1500807995.8,286047009.1,N
1500808015.6,286047008.5,N
1500808035.4,286047007.1,N
1500808055.3,286047004.9,N
1500808075.1,286047006.9,N
1500808095.9,286047008.5,N
1500808115.7,286047008.4,N
1500808135.5,286047008.9,N
1500808155.4,286047008.2,N
1500808175.2,286047008.4,N
1500808195.1,286047010.2,N
1500808196.0,286047010.2,N
1500808215.8,286047011.7,N
1500808235.6,286047011.0,N
1500808255.5,286047012.1,N
1500808275.3,286047013.6,N
1500808295.1,286047013.0,N
1500808315.9,286047012.6,N
1500808335.7,286047012.9,N
1500808355.6,286047012.5,N
1500808375.4,286047014.4,N
1500808395.2,286047014.7,N
1500808415.1,286047014.7,N
1500808416.0,286047014.7,N
1500808435.8,286047015.4,N
1500808455.6,286047014.3,N
1500808475.5,286047014.4,N
1500808495.3,286047016.6,N
1500808515.2,286047016.4,N
1500808535.9,286047017.0,N
1500808555.7,286047017.1,N
1500808575.6,286047016.0,N
1500808595.4,286047016.9,N
1500808615.2,286047016.2,N
1500808635.1,286047017.4,N
1500808636.0,286047017.4,N
1500808655.8,286047017.5,N
1500808675.7,286047017.3,N
1500808695.5,286047020.1,N
1500808715.3,286047018.0,N
1500808735.2,286047018.8,N
1500808755.0,286047019.7,N
1500808755.9,286047019.7,N
1500808775.8,286047017.4,N
1500808795.6,286047017.5,N
1500808815.4,286047021.5,N
1500808835.3,286047018.9,N
1500808855.1,286047018.9,N
1500808875.9,286047020.9,N
1500808895.7,286047023.2,N
1500808915.5,286047020.9,N
1500808935.4,286047023.5,N
1500808955.2,286047020.6,N
1500808975.0,286047022.7,N
1500808975.9,286047022.7,N
1500808995.8,286047025.1,N
1500809015.6,286047022.7,N
1500809035.5,286047023.1,N
1500809055.3,286047022.2,N
1500809075.1,286047022.5,N
1500809095.9,286047022.8,N
1500809115.7,286047024.8,N
1500809135.5,286047022.5,N
1500809155.4,286047023.4,N
1500809175.2,286047024.8,N
1500809195.1,286047022.5,N
1500809196.0,286047022.5,N
1500809215.8,286047023.9,N
1500809235.6,286047025.1,N
1500809255.5,286047024.9,N
1500809275.3,286047024.6,N
1500809295.2,286047026.3,N
1500809315.9,286047025.3,N
1500809335.7,286047027.8,N
1500809355.6,286047027.3,N
1500809375.4,286047027.7,N
1500809395.3,286047026.5,N
1500809415.1,286047025.7,N
1500809446.0,286047028.3,Y
1500809455.1,286047014.1,N
1500809456.0,286047014.1,N
1500809475.8,286046999.2,N
1500809495.6,286046998.4,N
1500809515.5,286046998.9,N
1500809535.3,286046998.1,N
1500809555.2,286046998.1,N
1500809575.9,286047000.2,N
1500809595.7,286047002.7,N
1500809615.6,286047002.2,N
1500809635.4,286047002.7,N
1500809655.2,286047003.7,N
1500809675.1,286047003.2,N
1500809676.0,286047003.2,N
1500809695.8,286047004.0,N
1500809715.7,286047002.1,N
1500809735.5,286047000.4,N
1500809755.3,286047002.0,N
1500809775.2,286047000.2,N
1500809795.0,286046999.8,N
1500809795.9,286046999.8,N
1500809815.8,286047002.0,N
1500809835.6,286047002.5,N
1500809855.4,286047002.4,N
1500809875.3,286047000.0,N
1500809895.1,286047000.3,N
1500809915.9,286047002.5,N
1500809935.7,286047001.5,N
1500809955.5,286047004.3,N
1500809975.4,286047005.6,N
1500809995.2,286047005.8,N
1500810015.0,286047003.4,N
1500810016.0,286047003.4,N
1500810035.8,286047003.5,N
1500810055.6,286047003.1,N
1500810075.5,286047003.8,N
1500810095.3,286047001.5,N
1500810115.1,286047002.2,N
1500810135.9,286047001.4,N
1500810155.7,286047003.5,N
1500810175.6,286047003.7,N
1500810195.4,286047003.3,N
1500810215.2,286047003.6,N
1500810235.1,286047001.3,N
1500810236.0,286047001.3,N
1500810255.8,286047001.5,N
1500810275.7,286047001.8,N
1500810295.5,286047001.3,N
1500810315.3,286047002.3,N
1500810335.2,286047002.6,N
1500810355.0,286047002.5,N
1500810355.9,286047002.5,N
1500810375.7,286047004.3,N
1500810395.6,286047004.4,N
1500810415.4,286047001.9,N
1500810435.3,286047000.9,N
1500810455.1,286047002.1,N
1500810475.8,286047002.5,N
1500810495.7,286046999.8,N
1500810515.5,286047003.7,N
1500810535.4,286047005.4,N
1500810555.2,286047001.3,N
1500810575.0,286047002.8,N
1500810575.9,286047002.8,N
1500810595.8,286047001.9,N
1500810615.6,286047002.8,N
1500810635.5,286047000.1,N
1500810655.3,286047000.7,N
1500810675.1,286047000.4,N
1500810695.9,286047002.4,N
1500810715.7,286047001.4,N
1500810735.5,286047003.5,N
1500810755.4,286047001.8,N
1500810775.2,286047001.4,N
1500810795.1,286047002.6,N
1500810796.0,286047002.6,N
1500810815.8,286047001.0,N
1500810835.6,286047001.0,N
1500810855.5,286047000.0,N
1500810875.3,286047002.0,N
1500810895.2,286047000.1,N
1500810915.9,286046998.3,N
1500810935.7,286046998.9,N
1500810955.6,286046999.9,N
1500810975.4,286046998.6,N
1500810995.3,286046998.2,N
1500811015.1,286046999.0,N
1500811016.0,286046999.0,N
1500811035.8,286046998.4,N
